| time (UTC) | temp C | wind direction | speed KPH | gust KPH | rain 1hr cm | rain 24hr cm | rain mn cm | humidity % | barometer mb |
| 20260504035640 | 20 | 287 | 4.8 | 8.0 | 0.00 | 0.28 | 0.28 | 82 | 1011.8 |
| 20260504034137 | 20 | 0 | 6.4 | 9.7 | 0.00 | 0.28 | 0.28 | 81 | 1011.5 |
| 20260504032635 | 20 | 299 | 9.7 | 12.9 | 0.00 | 0.28 | 0.28 | 82 | 1011.9 |
| 20260504031131 | 20 | 324 | 1.6 | 4.8 | 0.00 | 0.28 | 0.28 | 79 | 1012.0 |
| 20260504025627 | 20 | 301 | 3.2 | 3.2 | 0.00 | 0.28 | 0.28 | 85 | 1012.1 |
| 20260504024124 | 20 | 315 | 8.0 | 11.3 | 0.00 | 0.28 | 0.28 | 84 | 1012.7 |
| 20260504022619 | 18 | 338 | 9.7 | 14.5 | 0.00 | 0.28 | 0.28 | 86 | 1012.5 |
| 20260504021115 | 18 | 73 | 8.0 | 11.3 | 0.00 | 0.28 | 0.28 | 88 | 1012.2 |
| 20260504015611 | 20 | 9 | 6.4 | 11.3 | 0.00 | 0.28 | 0.28 | 85 | 1012.7 |
| 20260504014107 | 19 | 320 | 0.0 | 0.0 | 0.00 | 0.28 | 0.28 | 86 | 1013.2 |
| 20260504012604 | 18 | 319 | 0.0 | 0.0 | 0.00 | 0.28 | 0.28 | 91 | 1013.8 |
| 20260504011100 | 17 | 348 | 4.8 | 4.8 | 0.18 | 0.28 | 0.28 | 94 | 1014.4 |
| 20260504005600 | 17 | 298 | 0.0 | 0.0 | 0.13 | 0.25 | 0.25 | 93 | 1014.5 |
| 20260504004059 | 17 | 316 | 0.0 | 0.0 | 0.30 | 0.23 | 0.23 | 90 | 1015.0 |
| 20260504002554 | 19 | 311 | 3.2 | 3.2 | 0.13 | 0.15 | 0.15 | 82 | 1015.3 |
| 20260504001051 | 18 | 295 | 3.2 | 4.8 | 0.00 | 0.13 | 0.13 | 82 | 1015.1 |
| 20260503235550 | 18 | 302 | 0.0 | 0.0 | 0.00 | 0.13 | 0.13 | 84 | 1014.9 |
| 20260503234048 | 17 | 304 | 1.6 | 3.2 | 0.00 | 0.13 | 0.13 | 93 | 1014.6 |
| 20260503232544 | 17 | 321 | 1.6 | 8.0 | 0.00 | 0.13 | 0.13 | 95 | 1014.7 |
| 20260503231041 | 17 | 327 | 0.0 | 0.0 | 0.30 | 0.13 | 0.13 | 95 | 1014.8 |
| 20260503225538 | 17 | 311 | 0.0 | 0.0 | 0.18 | 0.08 | 0.08 | 93 | 1014.9 |
| 20260503224034 | 18 | 299 | 0.0 | 0.0 | 0.13 | 0.05 | 0.05 | 91 | 1015.0 |
| 20260503222531 | 18 | 316 | 0.0 | 1.6 | 0.00 | 0.00 | 0.00 | 88 | 1014.9 |
| 20260503221030 | 18 | 302 | 0.0 | 0.0 | 0.00 | 0.00 | 0.00 | 87 | 1014.8 |
| 20260503215526 | 18 | 316 | 0.0 | 1.6 | 0.00 | 0.00 | 0.00 | 86 | 1014.6 |
| 20260503214023 | 18 | 83 | 3.2 | 9.7 | 0.00 | 0.00 | 0.00 | 86 | 1014.4 |
| 20260503212521 | 18 | 303 | 0.0 | 0.0 | 0.00 | 0.00 | 0.00 | 85 | 1013.9 |
| 20260503211016 | 18 | 296 | 1.6 | 1.6 | 0.00 | 0.00 | 0.00 | 85 | 1013.8 |
| 20260503205512 | 18 | 303 | 3.2 | 4.8 | 0.00 | 0.00 | 0.00 | 86 | 1013.7 |
| 20260503204008 | 18 | 328 | 3.2 | 3.2 | 0.00 | 0.00 | 0.00 | 87 | 1013.7 |
| 20260503202506 | 18 | 316 | 3.2 | 3.2 | 0.00 | 0.00 | 0.00 | 87 | 1013.8 |
| 20260503201004 | 18 | 313 | 1.6 | 1.6 | 0.00 | 0.00 | 0.00 | 87 | 1013.5 |
| 20260503195500 | 18 | 323 | 1.6 | 3.2 | 0.00 | 0.00 | 0.00 | 87 | 1013.8 |
| 20260503194000 | 17 | 312 | 3.2 | 4.8 | 0.00 | 0.00 | 0.00 | 87 | 1013.9 |
| 20260503192500 | 17 | 312 | 0.0 | 0.0 | 0.00 | 0.00 | 0.00 | 86 | 1014.1 |
| 20260503190955 | 17 | 308 | 0.0 | 0.0 | 0.00 | 0.00 | 0.00 | 86 | 1014.1 |
| 20260503185452 | 17 | 304 | 0.0 | 0.0 | 0.00 | 0.00 | 0.00 | 88 | 1014.1 |
| 20260503183950 | 17 | 317 | 1.6 | 1.6 | 0.00 | 0.00 | 0.00 | 89 | 1014.4 |
| 20260503182449 | 17 | 299 | 0.0 | 0.0 | 0.00 | 0.00 | 0.00 | 89 | 1014.3 |
| 20260503180944 | 17 | 295 | 0.0 | 0.0 | 0.00 | 0.00 | 0.00 | 88 | 1014.4 |
| 20260503175443 | 17 | 267 | 0.0 | 0.0 | 0.00 | 0.00 | 0.00 | 88 | 1014.3 |
| 20260503173943 | 18 | 238 | 0.0 | 0.0 | 0.00 | 0.00 | 0.00 | 86 | 1014.3 |
| 20260503172440 | 18 | 242 | 3.2 | 3.2 | 0.00 | 0.00 | 0.00 | 87 | 1014.3 |
| 20260503170936 | 18 | 228 | 1.6 | 1.6 | 0.00 | 0.00 | 0.00 | 87 | 1014.1 |
| 20260503150912 | 19 | 323 | 4.8 | 4.8 | 0.00 | 0.00 | 0.00 | 84 | 1014.6 |
| 20260503130846 | 20 | 300 | 0.0 | 0.0 | 0.00 | 0.00 | 0.00 | 81 | 1015.7 |
| 20260503080807 | 20 | 10 | 1.6 | 1.6 | 0.00 | 0.00 | 0.00 | 84 | 1016.1 |
| 20260503072304 | 20 | 19 | 9.7 | 12.9 | 0.00 | 0.00 | 0.00 | 83 | 1015.9 |
| 20260503070757 | 20 | 25 | 1.6 | 3.2 | 0.00 | 0.00 | 0.00 | 82 | 1016.1 |
| 20260503053737 | 23 | 312 | 3.2 | 3.2 | 0.00 | 0.00 | 0.00 | 73 | 1016.3 |
| 20260503052235 | 23 | 336 | 8.0 | 12.9 | 0.00 | 0.00 | 0.00 | 74 | 1016.7 |
| 20260503050730 | 23 | 50 | 4.8 | 9.7 | 0.00 | 0.00 | 0.00 | 72 | 1016.8 |
| 20260503045228 | 23 | 34 | 9.7 | 12.9 | 0.00 | 0.00 | 0.00 | 72 | 1016.7 |
| 20260503043724 | 23 | 323 | 4.8 | 9.7 | 0.00 | 0.00 | 0.00 | 71 | 1016.8 |
| 20260503042220 | 23 | 323 | 4.8 | 8.0 | 0.00 | 0.00 | 0.00 | 71 | 1016.8 |
| 20260503040717 | 23 | 22 | 8.0 | 11.3 | 0.00 | 0.00 | 0.00 | 71 | 1017.1 |